Flag for Canada Weather past 2 weeks in Eureka, Nunavut, Canada

Now
37 °F

Partly sunny.


Feels Like: 30 °F
Forecast: 27 / 35 °F
Wind: 12 mph from Northeast

Location: Eureka

Current Time: Aug 28, 2015 at 4:54:57 AM

Latest Report: Aug 28, 2015 at 4:00 AM


Visibility: 15 mi

Pressure: 29.94 "Hg

Humidity: 60%

Dew point: 25 °F

Location of EurekaLocation

Historic Weather in Eureka — Graph

°F

Eureka temperature yesterday

Maximum temperature yesterday: 41 °F (at 5:00 PM)
Minimum temperature yesterday: 36 °F (at 1:00 AM)
Average temperature yesterday: 38 °F

Past Weeks' High & Low Weather Summary

 TemperatureHumidityPressure
High46 °F (Aug 15, 10:00 PM)100% (Aug 22, 4:00 AM)30.34 "Hg (Aug 22, 4:00 AM)
Low34 °F (Aug 17, 3:00 AM)61% (Aug 16, 6:00 PM)29.61 "Hg (Aug 17, 1:00 PM)
Average38 °F80%30.02 "Hg
* Reported Aug 13 3:00 AM — Aug 28 3:00 AM, Eureka, Weather by CustomWeather, © 2015

Note: Actual official high and low records may vary slightly from our data, if they occured in-between our weather recording intervals... More about our weather records

Advertising

Eureka weather history for previous 24 hours

 ConditionsComfort  
Time TempWeatherWind HumidityBarometerVisibility
3:00 AM
Fri, Aug 28
37 °FOvercast.12 mph65%29.94 "Hg15 mi
2:00 AM37 °FOvercast.10 mph65%29.95 "Hg15 mi
1:00 AM37 °FOvercast.3 mph65%29.96 "Hg15 mi
10:00 PM
Thu, Aug 27
39 °FOvercast.8 mph65%29.98 "Hg15 mi
9:00 PM41 °FOvercast.No wind61%29.99 "Hg15 mi
8:00 PM39 °FOvercast.2 mph61%29.99 "Hg15 mi
7:00 PM41 °FMore clouds than sun.3 mph61%30.00 "Hg15 mi
6:00 PM39 °FOvercast.6 mph65%30.01 "Hg15 mi
5:00 PM41 °FOvercast.6 mph61%30.01 "Hg15 mi
4:00 PM39 °FOvercast.6 mph70%30.02 "Hg15 mi
3:00 PM39 °FOvercast.8 mph70%30.02 "Hg15 mi
2:00 PM39 °FMostly cloudy.10 mph70%30.03 "Hg15 mi
1:00 PM39 °FMostly cloudy.12 mph70%30.03 "Hg15 mi
12:00 PM37 °FCloudy.13 mph75%30.04 "Hg15 mi
11:00 AM37 °FMostly cloudy.15 mph87%30.05 "Hg15 mi
10:00 AM37 °FPartly sunny.9 mph81%30.06 "Hg15 mi
9:00 AM37 °FMostly cloudy.10 mph81%30.08 "Hg15 mi
8:00 AM36 °FMostly cloudy.13 mph87%30.08 "Hg15 mi
7:00 AM36 °FMore clouds than sun.12 mph87%30.09 "Hg15 mi
6:00 AM36 °FOvercast.13 mph87%30.09 "Hg15 mi
5:00 AM36 °FPartly sunny.15 mph87%30.09 "Hg15 mi
4:00 AM36 °FBroken clouds.14 mph87%30.10 "Hg15 mi
Weather by CustomWeather, © 2015

See weather overviewHow to use our weather pages